Regional Weather Roundup
Issued by NWS

Home | Current Version | Previous Version | Graphics & Text | Print | Product List | Glossary On
Versions: 1 2 3 4 5 6 7 8 9 10 11 12 13 14 15 16 17 18 19 20 21 22 23 24 25 26 27 28 29 30 31 32 33 34 35 36 37 38 39 40 41 42 43 44 45 46 47 48 49 50
000
ASUS45 KSLC 011010
RWRUT

UTAH REGIONAL WEATHER ROUNDUP
NATIONAL WEATHER SERVICE SALT LAKE CITY UT
400 AM MDT SAT AUG 01 2015

UTZ001>011-023>025-011100-

NORTHERN UTAH

CITY           SKY/WX    TMP DP  RH WIND       PRES   REMARKS
BRIGHAM CITY   PTCLDY    64  42  44 CALM      30.11F
HILL AFB       PTCLDY    67  32  27 E16       30.13S
LOGAN          CLEAR     57  41  55 CALM      30.15S
OGDEN          PTCLDY    66  33  29 SW6       30.11S
PROVO AIRPORT  PTCLDY    59  37  44 CALM      30.14S
SALT LAKE CITY PTCLDY    67  37  33 S8        30.08F
VERNAL         CLEAR     61  37  41 VRB3      30.16S
WENDOVER       PTCLDY    70  30  23 CALM      30.10S
HEBER CITY     CLEAR     48  34  57 CALM      30.24S
WEST JORDAN    CLEAR     66  32  28 CALM      30.13S

$$

UTZ012>022-026-027-011100-

SOUTHERN/CENTRAL UTAH

CITY           SKY/WX    TMP DP  RH WIND       PRES   REMARKS
BLANDING       CLOUDY    68  53  58 CALM      30.35S
BRYCE CANYON   MOCLDY    53  42  66 CALM      30.38F
CEDAR CITY     PTCLDY    67  43  41 S5        30.22S
DELTA          PTCLDY    67  22  18 S8        30.14S
HANKSVILLE     CLEAR     77  46  33 S7        30.13S
MILFORD        PTCLDY    63  41  44 S6        30.15S
MOAB/CYNLANDS  CLEAR     77  51  40 SE7       30.11S
PRICE          PTCLDY    62  15  16 N3        30.22S
ST GEORGE      SUNNY     81  54  39 E7        30.05S
KANAB          CLOUDY    70  54  56 N3        30.25R

$$

REGIONAL REPORTS     COLORADO/ARIZONA

CITY           SKY/WX    TMP DP  RH WIND       PRES   REMARKS
CRAIG, CO      CLEAR     46  35  65 CALM      30.27R
GRAND JUNCTION PTCLDY    70  47  43 E9        30.17R
RIFLE          CLEAR     62  39  42 SW3       30.24R
MONTROSE       PTCLDY    62  46  55 VRB5      30.27S
CORTEZ         CLOUDY    63  60  90 E3        30.28F
PAGE, AZ       MOCLDY    77  51  40 S5        30.12F
GRAND CANYON   CLOUDY    61  55  81 CALM      30.32S
KINGMAN        CLOUDY    81  52  36 SE12      30.06F
FLAGSTAFF      CLOUDY    59  55  87 NE5       30.35F

$$

REGIONAL REPORTS    NEVADA/IDAHO/WYOMING

CITY           SKY/WX    TMP DP  RH WIND       PRES   REMARKS
LAS VEGAS, NV  CLOUDY    90  53  28 SE3       29.89F
ELY            PTCLDY    56  25  30 S8        30.27S
ELKO           CLEAR     57  28  33 CALM      30.18F
POCATELLO, ID  CLEAR     49  40  71 NW7       30.16R
BURLEY         CLEAR     56  44  64 CALM      30.11S
EVANSTON, WY   PTCLDY    57  27  31 SE6       30.33S
ROCK SPRINGS   PTCLDY    60  26  27 SW6       30.28F
KEMMERER       PTCLDY    52  32  46 N12       30.34S

$$


USA.gov is the U.S. government's official web portal to all federal, state and local government web resources and services.